Location: Central Coast
(33.3208°S, 151.2336°E)
Time: 02:15:14
(UTC+11:00)

Vanguard 2 - All Passes

Search period start: 24 October 2017 00:00
Search period end: 03 November 2017 00:00
Orbit: 553 x 2939 km, 32.9° (Epoch: 22 October)

Date Brightness Start Highest point End Pass type
(mag) Time Alt. Az. Time Alt. Az. Time Alt. Az.
24 Oct - 01:58:19 10° W 02:08:59 54° NNW 02:24:54 10° NE visible
24 Oct - 04:09:42 10° W 04:20:27 26° NW 04:33:21 10° NNE visible
24 Oct - 19:52:51 10° NW 19:57:26 49° NNE 20:04:26 10° E visible
24 Oct - 22:00:00 10° W 22:06:12 88° N 22:16:58 10° E visible
25 Oct - 00:07:51 10° W 00:16:17 74° NNW 00:30:34 10° ENE visible
25 Oct - 02:16:46 10° W 02:27:16 44° NNW 02:42:28 10° NE visible
25 Oct - 04:29:49 10° WNW 04:38:41 18° NW 04:48:52 10° N visible
25 Oct - 18:05:28 10° N 18:07:57 15° NE 18:10:47 10° ENE daylight
25 Oct - 20:10:43 10° WNW 20:15:28 64° NNE 20:22:55 10° E visible
25 Oct - 22:18:07 10° W 22:24:29 88° N 22:35:32 10° E visible
26 Oct - 00:26:02 10° W 00:34:36 65° NNW 00:48:50 10° ENE visible
26 Oct - 02:35:25 10° W 02:45:34 35° NNW 02:59:39 10° NNE visible
26 Oct - 04:52:08 10° WNW 04:56:59 12° NW 05:02:11 10° NNW visible
26 Oct - 18:22:21 10° NNW 18:25:44 24° NNE 18:29:54 10° E daylight
26 Oct - 20:28:43 10° WNW 20:33:35 77° NNE 20:41:22 10° E visible
26 Oct - 22:36:14 10° W 22:42:46 84° N 22:54:04 10° ENE visible
27 Oct - 00:44:16 10° W 00:52:53 55° NNW 01:06:52 10° NE visible
27 Oct - 02:54:26 10° W 03:03:52 27° NNW 03:16:18 10° NNE visible
27 Oct - 18:39:49 10° NW 18:43:37 36° NNE 18:48:31 10° E daylight
27 Oct - 20:46:47 10° W 20:51:46 85° N 20:59:49 10° E visible
27 Oct - 22:54:21 10° W 23:01:01 76° NNW 23:12:32 10° ENE visible
28 Oct - 01:02:37 10° W 01:11:10 45° NNW 01:24:35 10° NE visible
28 Oct - 03:14:07 10° WNW 03:22:12 20° NNW 03:32:13 10° N visible
28 Oct - 18:57:34 10° NW 19:01:35 51° NNE 19:06:59 10° E daylight
28 Oct - 21:04:53 10° W 21:09:59 88° N 21:18:17 10° E visible
28 Oct - 23:12:29 10° W 23:19:16 66° NNW 23:30:51 10° ENE visible
29 Oct - 01:21:09 10° W 01:29:29 35° NNW 01:41:57 10° NNE night (unlit)
29 Oct - 03:35:21 10° WNW 03:40:35 13° NW 03:46:29 10° NNW visible
29 Oct - 17:09:22 10° NNW 17:11:59 17° NNE 17:14:43 10° ENE daylight
29 Oct - 19:15:31 10° WNW 19:19:39 67° NNE 19:25:20 10° E daylight
29 Oct - 21:23:00 10° W 21:28:12 85° N 21:36:45 10° E visible
29 Oct - 23:30:41 10° W 23:37:31 55° NNW 23:48:58 10° NE visible
30 Oct - 01:40:00 10° W 01:47:49 27° NNW 01:58:50 10° NNE night (unlit)
30 Oct - 17:26:32 10° NNW 17:29:55 26° NNE 17:33:32 10° E daylight
30 Oct - 19:33:34 10° WNW 19:37:46 80° N 19:43:41 10° E visible
30 Oct - 21:41:07 10° W 21:46:24 78° N 21:55:10 10° ENE visible
30 Oct - 23:48:57 10° W 23:55:47 44° NNW 00:06:48 10° NE visible
31 Oct - 01:59:25 10° WNW 02:06:11 19° NNW 02:14:59 10° N night (unlit)
31 Oct - 17:44:10 10° NW 17:47:54 39° NNE 17:52:00 10° E daylight
31 Oct - 19:51:39 10° W 19:55:56 86° N 20:02:03 10° E visible
31 Oct - 21:59:13 10° W 22:04:37 67° NNW 22:13:30 10° ENE visible
01 Nov - 00:07:25 10° W 00:14:04 34° NNW 00:24:18 10° NE visible
01 Nov - 02:20:14 10° NW 02:24:36 13° NNW 02:29:39 10° N night (unlit)
01 Nov - 15:55:47 10° N 15:58:08 14° NNE 16:00:19 10° ENE daylight
01 Nov - 18:02:03 10° WNW 18:05:56 55° NNE 18:10:19 10° E daylight
01 Nov - 20:09:47 10° W 20:14:07 86° N 20:20:25 10° E visible
01 Nov - 22:17:22 10° W 22:22:48 54° NNW 22:31:39 10° ENE visible
02 Nov - 00:26:09 10° WNW 00:32:23 25° NNW 00:41:21 10° NNE night (unlit)
02 Nov - 16:12:40 10° NNW 16:16:11 22° NNE 16:19:21 10° ENE daylight
02 Nov - 18:20:05 10° WNW 18:24:02 71° N 18:28:35 10° E daylight
02 Nov - 20:27:53 10° W 20:32:17 80° N 20:38:46 10° ENE visible
02 Nov - 22:35:37 10° W 22:41:00 42° NNW 22:49:34 10° NE visible
